TimePDT,TemperatureF,Dew PointF,Humidity,Sea Level PressureIn,VisibilityMPH,Wind Direction,Wind SpeedMPH,Gust SpeedMPH,PrecipitationIn,Events,Conditions,WindDirDegrees,DateUTC
12:53 AM,48.0,34.0,58,30.19,10.0,NW,3.5,-,N/A,,Clear,320,2012-10-04 07:53:00
1:53 AM,46.9,35.1,63,30.17,10.0,West,4.6,-,N/A,,Clear,280,2012-10-04 08:53:00
2:53 AM,48.9,37.0,64,30.17,10.0,Variable,4.6,-,N/A,,Clear,0,2012-10-04 09:53:00
3:53 AM,46.9,36.0,66,30.17,10.0,SW,3.5,-,N/A,,Clear,230,2012-10-04 10:53:00
4:53 AM,48.9,34.0,56,30.16,10.0,NNW,5.8,-,N/A,,Clear,340,2012-10-04 11:53:00
5:53 AM,48.9,34.0,56,30.17,10.0,NNW,8.1,-,N/A,,Clear,330,2012-10-04 12:53:00
6:53 AM,48.0,34.0,58,30.17,10.0,NNW,8.1,-,N/A,,Clear,330,2012-10-04 13:53:00
7:53 AM,48.9,35.1,59,30.18,10.0,NNW,3.5,-,N/A,,Clear,340,2012-10-04 14:53:00
8:53 AM,52.0,35.1,53,30.19,10.0,NNW,5.8,-,N/A,,Clear,330,2012-10-04 15:53:00
9:53 AM,55.9,36.0,47,30.19,10.0,Variable,4.6,-,N/A,,Clear,0,2012-10-04 16:53:00
10:53 AM,60.1,37.0,42,30.19,10.0,NW,9.2,-,N/A,,Clear,310,2012-10-04 17:53:00
11:53 AM,68.0,25.0,20,30.18,10.0,East,15.0,21.9,N/A,,Clear,100,2012-10-04 18:53:00
12:53 PM,70.0,23.0,17,30.17,10.0,East,13.8,25.3,N/A,,Clear,80,2012-10-04 19:53:00
1:53 PM,71.1,23.0,16,30.16,10.0,East,16.1,23.0,N/A,,Clear,80,2012-10-04 20:53:00
2:53 PM,71.1,21.9,16,30.16,10.0,East,12.7,21.9,N/A,,Clear,80,2012-10-04 21:53:00
3:53 PM,71.1,21.0,15,30.15,10.0,ENE,13.8,23.0,N/A,,Clear,70,2012-10-04 22:53:00
4:53 PM,70.0,19.0,14,30.16,10.0,East,17.3,26.5,N/A,,Clear,80,2012-10-04 23:53:00
5:53 PM,68.0,21.0,17,30.16,10.0,East,16.1,23.0,N/A,,Clear,80,2012-10-05 00:53:00
6:53 PM,66.0,21.9,19,30.17,10.0,East,10.4,-,N/A,,Clear,80,2012-10-05 01:53:00
7:53 PM,64.0,21.9,20,30.17,10.0,ENE,6.9,-,N/A,,Clear,60,2012-10-05 02:53:00
8:53 PM,60.1,23.0,24,30.18,10.0,NE,3.5,-,N/A,,Clear,40,2012-10-05 03:53:00
9:53 PM,60.1,23.0,24,30.19,10.0,NE,5.8,-,N/A,,Clear,50,2012-10-05 04:53:00
10:53 PM,60.1,21.9,23,30.19,10.0,NE,4.6,-,N/A,,Clear,50,2012-10-05 05:53:00
11:53 PM,52.0,24.1,34,30.20,10.0,Calm,Calm,-,N/A,,Clear,0,2012-10-05 06:53:00